Location: Ferchesar
(52.6477°N, 12.4298°E)
Time: 05:06:22
(UTC+01:00)

Vanguard 1 Rocket - Pass Details

Date: 11 December 2021
Orbit: 651 x 4224 km, 34.3° (Epoch: 15 January)

Event Time Altitude Azimuth Distance (km) Brightness Sun altitude
Exits shadow 06:08:58 11° 251° (WSW) 4,816 10.6 -17.3°
Maximum altitude 06:19:58 27° 202° (SSW) 4,778 11.0 -15.7°
Drops below altitude 10° 06:36:29 10° 157° (SSE) 7,155 12.6 -13.3°
Sets 06:44:08 0° 147° (SSE) 8,416 13.3 -12.3°
